Date String (YYYY-MM-DD hh:mm:ss) UTC,Instrument flags,Ambient pressure (hPa),Sample flow (lpm),Bypass flow (lpm),Sample temperature (°C),Ambient temperature (°C),ASC tube jacket temperature (°C),LED temperature (°C),Box temperature (°C),Sample RH (%),Span deviation,Mass concentration (μg/m³),Mass concentration (μg/m³),Mass concentration (μg/m³)
DateTimeUTC,F1_M11,P_M11,Q1_M11,Q2_M11,T1_M11,T2_M11,T3_M11,T4_M11,T5_M11,U1_M11,ZSPAN_M11,X0_M11,X2_M11,X1_M11
2022-06-02 04:00:00,,0830.3,4.99,0.00,28.8,27.7,00.0,37.8,30.6,21.4,0000.0,0005.48,0003.77,0003.60
2022-06-02 04:01:00,,0830.3,5.00,0.00,28.8,27.7,00.0,37.8,30.6,21.4,0000.0,0005.45,0003.76,0003.59
2022-06-02 04:02:00,,0830.3,5.00,0.00,28.8,27.7,00.0,37.8,30.6,21.4,0000.0,0005.54,0003.77,0003.60
2022-06-02 04:03:00,,0830.3,5.00,0.00,28.7,27.7,00.0,37.8,30.5,21.4,0000.0,0006.70,0003.80,0003.60
2022-06-02 04:04:00,,0830.3,5.00,0.00,28.7,27.7,00.0,37.8,30.5,21.4,0000.0,0006.81,0003.81,0003.59
2022-06-02 04:05:00,,0830.3,5.00,0.00,28.7,27.7,00.0,37.8,30.5,21.4,0000.0,0006.85,0003.83,0003.59
2022-06-02 04:06:00,,0830.4,5.00,0.00,28.7,27.7,00.0,37.8,30.5,21.4,0000.0,0006.95,0003.84,0003.60
2022-06-02 04:07:00,,0830.4,5.00,0.00,28.7,27.7,00.0,37.8,30.5,21.4,0000.0,0006.79,0003.86,0003.61
2022-06-02 04:08:00,,0830.4,5.00,0.00,28.7,27.7,00.0,37.7,30.5,21.4,0000.0,0006.86,0003.89,0003.62
2022-06-02 04:09:00,,0830.4,5.00,0.00,28.7,27.7,00.0,37.7,30.5,21.4,0000.0,0006.48,0003.87,0003.64
2022-06-02 04:10:00,,0830.4,5.00,0.00,28.7,27.6,00.0,37.7,30.5,21.4,0000.0,0006.38,0003.87,0003.65
2022-06-02 04:11:00,,0830.4,4.99,0.00,28.7,27.6,00.0,37.7,30.5,21.4,0000.0,0006.42,0003.88,0003.67
2022-06-02 04:12:00,,0830.4,5.00,0.00,28.7,27.6,00.0,37.7,30.5,21.4,0000.0,0006.44,0003.89,0003.68
2022-06-02 04:13:00,,0830.4,5.01,0.00,28.7,27.6,00.0,37.7,30.5,21.4,0000.0,0006.39,0003.89,0003.69
2022-06-02 04:14:00,,0830.4,5.00,0.00,28.6,27.6,00.0,37.7,30.4,21.4,0000.0,0005.24,0003.88,0003.70
2022-06-02 04:15:00,,0830.4,4.99,0.00,28.6,27.6,00.0,37.7,30.4,21.4,0000.0,0005.41,0003.87,0003.71
2022-06-02 04:16:00,,0830.3,5.00,0.00,28.6,27.6,00.0,37.7,30.4,21.4,0000.0,0006.63,0003.89,0003.71
2022-06-02 04:17:00,,0830.4,4.99,0.00,28.6,27.6,00.0,37.7,30.4,21.5,0000.0,0006.47,0003.87,0003.70
2022-06-02 04:18:00,,0830.4,5.00,0.00,28.6,27.6,00.0,37.6,30.4,21.5,0000.0,0007.36,0003.87,0003.72
2022-06-02 04:19:00,,0830.5,5.00,0.00,28.6,27.6,00.0,37.6,30.4,21.5,0000.0,0007.37,0003.87,0003.72
2022-06-02 04:20:00,,0830.5,5.01,0.00,28.6,27.6,00.0,37.6,30.4,21.5,0000.0,0007.71,0003.85,0003.72
2022-06-02 04:21:00,,0830.5,5.01,0.00,28.6,27.5,00.0,37.6,30.4,21.5,0000.0,0008.00,0003.84,0003.71
2022-06-02 04:22:00,,0830.6,4.99,0.00,28.6,27.5,00.0,37.6,30.4,21.5,0000.0,0008.18,0003.87,0003.72
2022-06-02 04:23:00,,0830.6,5.00,0.00,28.6,27.5,00.0,37.6,30.4,21.5,0000.0,0008.49,0003.91,0003.74
2022-06-02 04:24:00,,0830.6,4.99,0.00,28.6,27.5,00.0,37.6,30.4,21.5,0000.0,0008.55,0003.93,0003.74
2022-06-02 04:25:00,,0830.6,5.00,0.00,28.6,27.5,00.0,37.6,30.4,21.5,0000.0,0008.66,0003.97,0003.75
2022-06-02 04:26:00,,0830.6,5.00,0.00,28.5,27.5,00.0,37.6,30.4,21.5,0000.0,0008.72,0004.00,0003.76
2022-06-02 04:27:00,,0830.6,5.01,0.00,28.5,27.5,00.0,37.6,30.3,21.5,0000.0,0007.99,0004.00,0003.79
2022-06-02 04:28:00,,0830.6,5.00,0.00,28.5,27.5,00.0,37.6,30.3,21.5,0000.0,0008.14,0004.04,0003.81
2022-06-02 04:29:00,,0830.6,5.00,0.00,28.5,27.5,00.0,37.6,30.3,21.5,0000.0,0007.77,0004.06,0003.82
2022-06-02 04:30:00,,0830.6,5.00,0.00,28.5,27.5,00.0,37.6,30.3,21.5,0000.0,0007.69,0004.07,0003.82
2022-06-02 04:31:00,,0830.6,5.00,0.00,28.5,27.4,00.0,37.5,30.3,21.5,0000.0,0007.40,0004.09,0003.83
2022-06-02 04:32:00,,0830.5,4.99,0.00,28.5,27.4,00.0,37.5,30.3,21.5,0000.0,0006.91,0004.09,0003.84
2022-06-02 04:33:00,,0830.5,4.99,0.00,28.5,27.4,00.0,37.5,30.3,21.5,0000.0,0007.58,0004.10,0003.86
2022-06-02 04:34:00,,0830.6,5.00,0.00,28.5,27.4,00.0,37.5,30.3,21.4,0000.0,0007.20,0004.09,0003.87
2022-06-02 04:35:00,,0830.6,5.00,0.00,28.5,27.4,00.0,37.5,30.2,21.4,0000.0,0007.15,0004.09,0003.87
2022-06-02 04:36:00,,0830.5,5.01,0.00,28.4,27.4,00.0,37.5,30.2,21.5,0000.0,0007.05,0004.08,0003.90
2022-06-02 04:37:00,,0830.6,5.00,0.00,28.4,27.4,00.0,37.5,30.2,21.5,0000.0,0006.89,0004.09,0003.91
2022-06-02 04:38:00,,0830.6,5.00,0.00,28.4,27.4,00.0,37.5,30.2,21.5,0000.0,0007.06,0004.13,0003.93
2022-06-02 04:39:00,,0830.5,5.01,0.00,28.4,27.3,00.0,37.5,30.2,21.5,0000.0,0006.99,0004.14,0003.94
2022-06-02 04:40:00,,0830.5,5.00,0.00,28.4,27.3,00.0,37.5,30.2,21.5,0000.0,0006.95,0004.17,0003.95
2022-06-02 04:41:00,,0830.5,4.99,0.00,28.4,27.3,00.0,37.4,30.2,21.5,0000.0,0007.20,0004.21,0003.96
2022-06-02 04:42:00,,0830.5,5.00,0.00,28.4,27.3,00.0,37.4,30.2,21.6,0000.0,0007.69,0004.24,0003.98
2022-06-02 04:43:00,,0830.5,4.99,0.00,28.4,27.3,00.0,37.4,30.2,21.5,0000.0,0008.02,0004.31,0004.01
2022-06-02 04:44:00,,0830.6,5.00,0.00,28.4,27.3,00.0,37.4,30.2,21.5,0000.0,0007.53,0004.32,0004.01
2022-06-02 04:45:00,,0830.6,5.01,0.00,28.3,27.2,00.0,37.4,30.1,21.6,0000.0,0007.46,0004.35,0004.02
2022-06-02 04:46:00,,0830.6,5.00,0.00,28.3,27.2,00.0,37.4,30.1,21.6,0000.0,0007.48,0004.36,0004.04
2022-06-02 04:47:00,,0830.5,5.00,0.00,28.3,27.2,00.0,37.4,30.1,21.6,0000.0,0007.54,0004.39,0004.05
2022-06-02 04:48:00,,0830.6,5.00,0.00,28.3,27.2,00.0,37.4,30.1,21.6,0000.0,0007.64,0004.42,0004.07
2022-06-02 04:49:00,,0830.5,5.00,0.00,28.3,27.2,00.0,37.4,30.1,21.6,0000.0,0007.61,0004.41,0004.08
2022-06-02 04:50:00,,0830.5,5.00,0.00,28.3,27.2,00.0,37.3,30.1,21.6,0000.0,0007.57,0004.41,0004.09
2022-06-02 04:51:00,,0830.5,5.01,0.00,28.3,27.2,00.0,37.3,30.1,21.6,0000.0,0007.63,0004.44,0004.11
2022-06-02 04:52:00,,0830.5,5.01,0.00,28.3,27.2,00.0,37.3,30.1,21.7,0000.0,0007.56,0004.42,0004.13
2022-06-02 04:53:00,,0830.5,4.99,0.00,28.2,27.1,00.0,37.3,30.0,21.7,0000.0,0007.05,0004.43,0004.14
2022-06-02 04:54:00,,0830.4,4.99,0.00,28.2,27.1,00.0,37.3,30.0,21.7,0000.0,0006.76,0004.40,0004.15
2022-06-02 04:55:00,,0830.3,5.00,0.00,28.2,27.1,00.0,37.3,30.0,21.6,0000.0,0007.41,0004.40,0004.15
2022-06-02 04:56:00,,0830.3,5.01,0.00,28.2,27.1,00.0,37.3,30.0,21.6,0000.0,0007.43,0004.41,0004.16
2022-06-02 04:57:00,,0830.4,5.00,0.00,28.2,27.1,00.0,37.3,30.0,21.6,0000.0,0007.46,0004.41,0004.17
2022-06-02 04:58:00,,0830.3,5.01,0.00,28.2,27.1,00.0,37.3,30.0,21.6,0000.0,0007.47,0004.43,0004.18
2022-06-02 04:59:00,,0830.4,5.00,0.00,28.2,27.1,00.0,37.2,30.0,21.6,0000.0,0007.46,0004.45,0004.19
